Volver al catálogo

ISS

ZVEZDA

ActivoCienciaVLEO
NORAD 26400·PAYLOAD·🇷🇺 Russia

Lanzado Jul 12, 2000 desde Baikonur Cosmodrome

Loading…

Próximos Pases (próximas 24 horas)

TLE

ActualizadoSource: Space-Track

Época: Sep 14, 2026, 08:04 UTC

1 26400U 00037A   26257.33674862  .00004921  00000-0  97059-4 0  9993
2 26400  51.6309 218.8707 0004933 140.1115 220.0237 15.49109585586386

Sigue ISS en tiempo real con AllMySat

Download on the App Store